Home > Weather > Manhattan > Past weeks

Flag for USA Past Weather in Manhattan, Kansas, USA — Yesterday and Last 2 Weeks

Now
83 °F

Scattered clouds.


Feels Like: 87 °F
Forecast: 70 / 90 °F
Wind: 15 mph from South

Location: Manhattan Municipal Airport

Current Time: Jun 24, 2016 at 5:22:46 PM

Latest Report: Jun 24, 2016 at 4:52 PM


Visibility: 10 mi

Pressure: 29.91 "Hg

Humidity: 65%

Dew Point: 70 °F

Location of ManhattanLocation

Past Weather in Manhattan — Graph

°F

Manhattan Temperature Yesterday

Maximum temperature yesterday: 93 °F (at 2:52 PM)
Minimum temperature yesterday: 71 °F (at 11:52 PM)
Average temperature yesterday: 82 °F

High & Low Weather Summary for the Past Weeks

 TemperatureHumidityPressure
High106 °F (Jun 22, 4:52 PM)93% (Jun 13, 3:52 AM)30.14 "Hg (Jun 13, 3:52 AM)
Low67 °F (Jun 15, 4:52 AM)20% (Jun 15, 3:52 PM)29.63 "Hg (Jun 14, 6:52 PM)
Average85 °F58%29.90 "Hg
* Reported Jun 9 3:52 PM — Jun 24 3:52 PM, Manhattan, Weather by CustomWeather, © 2016

Note: Actual official high and low records may vary slightly from our data, if they occured in-between our weather recording intervals... More about our weather records

Advertising

Manhattan Weather History for the Previous 24 Hours

Scroll right to see more
 ConditionsComfort  
Time TempWeatherWind HumidityBarometerVisibility
3:52 PM
Fri, Jun 24
86 °FPassing clouds.9 mph63%29.92 "Hg10 mi
2:52 PM82 °FOvercast.5 mph72%29.94 "Hg10 mi
1:52 PM81 °FScattered clouds.7 mph79%29.95 "Hg10 mi
12:52 PM81 °FPartly sunny.3 mph69%29.96 "Hg10 mi
11:52 AM79 °FPartly sunny.7 mph74%29.98 "Hg10 mi
10:52 AM78 °FThundershowers. Broken clouds.8 mph76%29.98 "Hg10 mi
9:52 AM83 °FSunny.10 mph61%29.96 "Hg10 mi
8:52 AM79 °FSunny.8 mph67%29.96 "Hg10 mi
7:52 AM78 °FSunny.6 mph64%29.96 "Hg10 mi
6:52 AM74 °FClear.No wind74%29.95 "Hg10 mi
5:52 AM73 °FPassing clouds.5 mph76%29.94 "Hg10 mi
4:52 AM73 °FOvercast.No wind74%29.94 "Hg10 mi
3:52 AM72 °FPartly cloudy.No wind76%29.93 "Hg10 mi
2:52 AM71 °FClear.No wind78%29.95 "Hg10 mi
1:52 AM72 °FClear.No wind76%29.95 "Hg10 mi
12:52 AM69 °FClear.3 mph87%29.98 "Hg10 mi
11:52 PM
Thu, Jun 23
71 °FClear.No wind81%29.98 "Hg10 mi
10:52 PM72 °FClear.3 mph78%29.98 "Hg10 mi
9:52 PM75 °FSunny.No wind74%29.96 "Hg10 mi
8:52 PM79 °FSunny.5 mph65%29.94 "Hg10 mi
7:52 PM81 °FSunny.7 mph65%29.94 "Hg10 mi
6:52 PM81 °FSunny.5 mph62%29.95 "Hg10 mi
5:52 PM87 °FSunny.6 mph45%29.95 "Hg10 mi
Weather by CustomWeather, © 2016

See weather overviewHow to use our weather pages